Time,TemperatureF,DewpointF,PressureIn,WindDirection,WindDirectionDegrees,WindSpeedMPH,WindSpeedGustMPH,Humidity,HourlyPrecipIn,Conditions,Clouds,dailyrainin,SoftwareType,DateUTC
2013-02-19 12:30:00,45.4,30.2,29.97,North,355,5.0,6.0,55,0.00,,,0.00,Wunderground v.1.15,2013-02-19 17:30:00,
2013-02-19 12:35:00,45.5,30.3,29.97,West,268,5.0,6.0,55,0.00,,,0.00,Wunderground v.1.15,2013-02-19 17:35:00,
2013-02-19 12:40:00,45.6,30.8,29.96,North,360,4.0,4.0,56,0.00,,,0.00,Wunderground v.1.15,2013-02-19 17:40:00,
2013-02-19 12:50:00,46.0,31.2,29.95,ENE,63,4.0,4.0,56,0.00,,,0.00,Wunderground v.1.15,2013-02-19 17:50:00,
2013-02-19 12:55:00,46.4,31.1,29.95,North,5,4.0,8.0,55,0.00,,,0.00,Wunderground v.1.15,2013-02-19 17:55:00,
2013-02-19 13:05:00,46.4,31.5,29.94,SSW,204,4.0,5.0,56,0.00,,,0.00,Wunderground v.1.15,2013-02-19 18:05:00,
2013-02-19 13:15:00,46.3,31.9,29.93,North,355,5.0,5.0,57,0.00,,,0.00,Wunderground v.1.15,2013-02-19 18:15:00,
2013-02-19 13:25:00,46.3,31.9,29.93,NE,43,4.0,5.0,57,0.00,,,0.00,Wunderground v.1.15,2013-02-19 18:25:00,
2013-02-19 13:35:00,46.5,32.1,29.92,North,360,3.0,3.0,57,0.00,,,0.00,Wunderground v.1.15,2013-02-19 18:35:00,
2013-02-19 13:40:00,46.5,32.1,29.93,West,267,3.0,3.0,57,0.00,,,0.00,Wunderground v.1.15,2013-02-19 18:40:00,
2013-02-19 13:50:00,46.5,32.1,29.91,North,360,3.0,3.0,57,0.00,,,0.00,Wunderground v.1.15,2013-02-19 18:50:00,
2013-02-19 14:00:00,46.6,32.2,29.91,North,350,3.0,3.0,57,0.00,,,0.00,Wunderground v.1.15,2013-02-19 19:00:00,
2013-02-19 14:05:00,46.7,31.8,29.91,WSW,250,3.0,3.0,56,0.00,,,0.00,Wunderground v.1.15,2013-02-19 19:05:00,
2013-02-19 14:15:00,46.7,31.8,29.90,NNW,331,4.0,4.0,56,0.00,,,0.00,Wunderground v.1.15,2013-02-19 19:15:00,
2013-02-19 14:25:00,46.6,32.2,29.90,WSW,242,3.0,4.0,57,0.00,,,0.00,Wunderground v.1.15,2013-02-19 19:25:00,
2013-02-19 14:35:00,46.5,32.1,29.89,NE,45,3.0,4.0,57,0.00,,,0.00,Wunderground v.1.15,2013-02-19 19:35:00,
2013-02-19 14:40:00,46.3,31.9,29.89,North,5,4.0,4.0,57,0.00,,,0.00,Wunderground v.1.15,2013-02-19 19:40:00,
2013-02-19 14:50:00,46.0,32.5,29.89,NE,44,4.0,4.0,59,0.00,,,0.00,Wunderground v.1.15,2013-02-19 19:50:00,
2013-02-19 15:00:00,45.8,32.7,29.87,NE,40,3.0,4.0,60,0.00,,,0.00,Wunderground v.1.15,2013-02-19 20:00:00,
2013-02-19 15:05:00,45.7,32.6,29.87,ENE,66,4.0,4.0,60,0.00,,,0.00,Wunderground v.1.15,2013-02-19 20:05:00,
2013-02-19 15:15:00,45.6,32.9,29.87,SE,142,3.0,4.0,61,0.00,,,0.00,Wunderground v.1.15,2013-02-19 20:15:00,
2013-02-19 15:25:00,45.6,32.9,29.85,West,279,3.0,4.0,61,0.00,,,0.00,Wunderground v.1.15,2013-02-19 20:25:00,
2013-02-19 15:30:00,45.6,33.3,29.86,NE,34,3.0,5.0,62,0.00,,,0.00,Wunderground v.1.15,2013-02-19 20:30:00,
2013-02-19 15:35:00,45.6,33.7,29.85,West,264,4.0,5.0,63,0.00,,,0.00,Wunderground v.1.15,2013-02-19 20:35:00,
2013-02-19 15:45:00,45.7,34.2,29.85,ENE,71,3.0,3.0,64,0.00,,,0.00,Wunderground v.1.15,2013-02-19 20:45:00,
2013-02-19 15:50:00,45.7,34.6,29.84,North,360,3.0,3.0,65,0.00,,,0.00,Wunderground v.1.15,2013-02-19 20:50:00,
2013-02-19 16:00:00,45.8,35.1,29.84,SW,223,3.0,3.0,66,0.00,,,0.00,Wunderground v.1.15,2013-02-19 21:00:00,
2013-02-19 16:05:00,45.9,35.6,29.83,WNW,290,3.0,3.0,67,0.00,,,0.00,Wunderground v.1.15,2013-02-19 21:05:00,
2013-02-19 16:15:00,45.9,36.3,29.83,West,277,3.0,4.0,69,0.00,,,0.00,Wunderground v.1.15,2013-02-19 21:15:00,
2013-02-19 16:25:00,45.5,37.0,29.83,NNE,13,3.0,4.0,72,0.00,,,0.00,Wunderground v.1.15,2013-02-19 21:25:00,
2013-02-19 16:30:00,45.2,37.1,29.83,WNW,298,3.0,3.0,73,0.00,,,0.01,Wunderground v.1.15,2013-02-19 21:30:00,
2013-02-19 16:35:00,44.9,37.5,29.83,NNW,327,2.0,3.0,75,0.00,,,0.01,Wunderground v.1.15,2013-02-19 21:35:00,
2013-02-19 16:45:00,44.5,38.4,29.82,NE,53,2.0,3.0,79,0.00,,,0.01,Wunderground v.1.15,2013-02-19 21:45:00,
2013-02-19 16:50:00,44.2,38.4,29.82,North,355,2.0,2.0,80,0.00,,,0.01,Wunderground v.1.15,2013-02-19 21:50:00,